Regional Weather Roundup
Issued by NWS Wakefield, VA

Home | Current Version | Previous Version | Graphics & Text | Print | Product List | Glossary On
Versions: 1 2 3 4 5 6 7 8 9 10 11 12 13 14 15 16
000
ASUS41 KAKQ 291215
RWRAKQ

REGIONAL WEATHER ROUNDUP
NATIONAL WEATHER SERVICE WAKEFIELD VA
800 AM EDT WED JUL 29 2015

Note: "fair" indicates few or no clouds below 12,000 feet with no
significant weather and/or obstructions to visibility. * = Denotes
station may not report precipitation (e.g., rain,snow,etc.),
thunder or fog.

VAZ042-051-052>054-056-291300-
NORTHERN VIRGINIA

CITY           SKY/WX    TMP DP  RH WIND       PRES   REMARKS
WASH NATIONAL  PTSUNNY   81  75  82 SE3       30.01R
DULLES         CLOUDY    74  72  93 CALM      30.01R FOG
FORT BELVOIR   PTSUNNY   76  75  97 CALM      30.00R
QUANTICO       PTSUNNY   77  72  84 MISG      30.01R
FREDERICKSBRG* CLOUDY    30  30 100 CALM      30.00R FOG
STAFFORD*      CLOUDY    72  71  97 CALM      30.05R
WARRENTON      CLOUDY    74  74 100 CALM      30.01R FOG
CULPEPER*      CLOUDY    72  72 100 CALM      30.02R FOG
MANASSAS*      CLOUDY    73  73 100 CALM      30.01R FOG
LEESBURG*      CLOUDY    73  73 100 SW7       30.02R FOG
WINCHESTER     CLOUDY    72  72 100 W6        30.03R FOG
FRONT ROYAL*   CLOUDY    70  70 100 CALM      30.01S VSB 3/4
LURAY*         CLOUDY    72  72 100 CALM      30.03R
$$

VAZ048-049-060>072-079>083-291300-
CENTRAL AND SOUTH CENTRAL VIRGINIA

CITY           SKY/WX    TMP DP  RH WIND       PRES   REMARKS
RICHMOND       LGT RAIN  77  72  84 S5        30.02R
CHESTERFIELD*  CLOUDY    73  63  68 SE6       30.03R
PETERSBURG*    CLOUDY    74  74 100 CALM      30.03R
HANOVER        CLOUDY    75  73  93 S5        30.03R
TAPPAHANNOCK*  SUNNY     74  72  92 CALM      30.02S
QUINTON*       CLOUDY    75  72  89 CALM      30.01R
CHARLOTTSVILLE FOG       73  72  96 N3        30.02R VSB 1/4
GORDONSVILLE*  PTSUNNY   73  73 100 CALM      30.01R
ORANGE*        CLOUDY    73  73 100 CALM      30.03R FOG
LOUISA*        CLOUDY    75  73  94 CALM      30.01R FOG
BUMPASS*       CLOUDY    74  73  98 CALM      30.01R
FARMVILLE*     PTSUNNY   75  75 100 CALM      30.01R FOG
CREWE*         PTSUNNY  N/A N/A N/A CALM      30.01R
FORT PICKETT*  PTSUNNY   74  72  94 S8        30.02R
CHASE CITY*    CLOUDY    78  76  94 S6        30.03R
CLARKSVILLE*   FAIR      72  72 100 SE3       30.02R
SOUTH HILL*    CLOUDY    72  71  97 S10       30.08S
LAWRENCEVILLE* PTSUNNY   73  72  94 CALM      30.02S
EMPORIA*       CLOUDY    72  70  94 SE3       30.04R
$$

VAZ088>098-291300-
SOUTHEAST VIRGINIA

CITY           SKY/WX    TMP DP  RH WIND       PRES   REMARKS
NORFOLK        SUNNY     79  72  79 S6        30.02R
VIRGINIA BEACH MOSUNNY   80  72  76 S3        30.02R
NORFOLK NAVAL  MOSUNNY   79  72  79 SW5       30.03R
WEST POINT*    CLOUDY    79  73  81 SW3       30.03R
SALUDA*        PTSUNNY   77  73  86 SW7       30.01R
NEWPORT NEWS   MOSUNNY   78  72  81 SW8       30.02R
LANGLEY AFB    MOSUNNY   79  73  81 SW7       30.02R
FORT EUSTIS    MOSUNNY   78  78 100 SW5       30.01R
WILLIAMSBURG*  SUNNY     81  73  78 SW3       30.03R
HR EXEC AP*    FAIR      73  72  94 CALM      30.04S
FRANKLIN*      MOSUNNY   76  73  88 CALM      30.03R
WAKEFIELD      PTSUNNY   75  71  87 CALM      30.02R
$$

VAZ020-022-025-037-045-291300-
WEST CENTRAL AND SOUTHWEST VIRGINIA

CITY           SKY/WX    TMP DP  RH WIND       PRES   REMARKS
STAUNTON*      CLOUDY    73  71  93 CALM      30.06R
WAYNESBORO*    CLOUDY    71  71  99 W5        30.05R
HOT SPRINGS VA CLOUDY    69  69 100 W8        30.15R FOG
LYNCHBURG      CLOUDY    72  72 100 S3        30.05R FOG
DANVILLE       CLOUDY    74  72  93 S3        30.03R FOG
SOUTH BOSTON*  CLOUDY    74  72  95 CALM      30.03R
MARTINSVILLE   CLOUDY    73  73 100 CALM      30.08R FOG
ROANOKE        CLOUDY    74  72  93 W5        30.07R
BLACKSBURG     CLOUDY    71  71  99 CALM      30.13R FOG
DUBLIN*        FOG       71  71 100 CALM      30.11R VSB 1/2
MARION*        PTSUNNY   70  67  92 NE6       30.14R FOG
HILLSVILLE*    FOG       66  66 100 CALM      30.12R VSB 3/4
RICHLANDS*     FOG       68  68 100 SE3       30.11S VSB<1/4
WISE*          FOG       70  70 100 S3        30.12R VSB<1/4
ABINGDON*      CLOUDY    71  70  95 CALM      30.09R FOG
$$

MDZ021>025-VAZ099-100-291300-
SOUTHERN MARYLAND AND THE DELMARVA PENINSULA

CITY           SKY/WX    TMP DP  RH WIND       PRES   REMARKS
PATUXENT RIVER PTSUNNY   76  71  85 SW8       30.00R
BAY BRIDGE APT   N/A     79  75  89 CALM      30.00S
LEONARDTOWN    CLOUDY    75  70  83 CALM      30.02S
DOVER          SUNNY     76  76 100 SW5       30.00R
GEORGETOWN     MOSUNNY   76  74  93 CALM      30.02R
EASTON         MOSUNNY   77  77 100 CALM      30.04S FOG
CAMBRIDGE      MOSUNNY   77  73  88 CALM      30.00S
SALISBURY      PTSUNNY   77  75  93 S3        30.02R
OCEAN CITY     SUNNY     78  74  87 MISG      30.02R
WALLOPS ISLAND SUNNY     78  77  96 SW5       30.03R
ACCOMACK*        N/A    N/A N/A N/A MISG        N/A
$$

NCZ012>017-030>032-291300-
NORTH CENTRAL AND EASTERN NORTH CAROLINA

CITY           SKY/WX    TMP DP  RH WIND       PRES   REMARKS
ROANOKE RAPIDS CLOUDY    73  72  94 CALM      30.03R
RALEIGH        PTSUNNY   76  70  82 S5        30.03R
ELIZABETH CITY SUNNY     79  72  79 SE5       30.02R
AHOSKIE*       PTSUNNY   72  70  92 CALM      30.03R
EDENTON*       SUNNY     78  72  81 S5        30.02R
CURRITUCK*     SUNNY     76  71  85 CALM      30.03R
KILL DEVIL HLS MOSUNNY   80  74  80 SE3       30.01S
MANTEO         SUNNY     80  72  76 SE3       30.02S
CAPE HATTERAS  SUNNY     81  70  69 E7        30.00S
TARBORO*         N/A     75  72  91 CALM      30.03R
GOLDSBORO      PTSUNNY   78  73  82 VRB2      29.99S
WASHINGTON     SUNNY     74  71  89 CALM      30.02R
GREENVILLE     SUNNY     77  72  83 CALM      30.03R
NEW BERN       SUNNY     79  71  76 CALM      30.01S
WILMINGTON     SUNNY     76  72  87 N3        29.98S
$$

VAZ048-291300-
ELSEWHERE

CITY           SKY/WX    TMP DP  RH WIND       PRES   REMARKS
HARRISBURG PA  PTSUNNY   75  70  84 S3        30.01R HAZE
BALTIMORE      PTSUNNY   77  72  84 CALM      30.00R
ANNAPOLIS      SUNNY     79  73  82 VRB3      30.00S
ANDREWS AFB    MOSUNNY   78  75  92 S3        30.00R
PHILADELPHIA   MOSUNNY   82  70  66 CALM      30.00R
HENDERSON NC   PTSUNNY   73  66  76 E3        30.03R
GREENSBORO     MOSUNNY   75  73  93 CALM      30.03R
ROCKY MOUNT    PTSUNNY   78  72  81 CALM      30.02R
$$

VAZ100-291300-
MARINE

STATION/POSITION TIME  TEMP    WIND        PRES    WAVE   SWELL
                       AIR SEA DIR/SP/G            HT/PER HT/PER
                 (UTC) (F)     (DEG/KT/KT) (MB)    (FT/S) (FT/S)
BRANDYWINE LGT   1100   75 76  240/  7/  8 1016.1R
CAPE MAY NJ      1100   74 79  230/  4/  5 1015.6R
LEWES DE         1100   74 74  220/  3/  4 1015.8R
15NM E FENWICK I 1150   78 78  240/  6/  8 1016.4R   2/ 7   2/ 7
OCEAN-CITY-INLET 1100   75 74  260/  3/  3 1015.3R
WACHAPREAGUE VA  1100   78 82  240/  4/  5 1016.0R
GOOSES REEF MD   1200   80 82  220/  8/ 10 1016.9R
COVE POINT MD    1100   78     250/  7/  9 1016.2R
SOLOMONS ISLAND  1100      82                N/A
BISHOPS HEAD MD  1100   81 82  240/ 11/ 12 1014.9R
POTOMAC MD       1200   79 83  250/ 10/ 12 1015.0R   1/ 2
CAMBRIDGE MD     1100   77 83  110/  2/  3 1015.0R
LEWISETTA VA     1100   76 84  230/  5/  6 1015.2S
RAPPAHANNOCK LGT 1100          220/ 10/ 11 1016.3R
STINGRAY PT      1200   79 83  240/  8/ 10 1016.5R   1/ 2
YORK RVR RNG VA  1100   79     250/  8/  9 1015.5R
YORKTOWN VA      1100   77 83   CALM  /  4 1015.8R
JAMESTOWN VA     1200   77 84  200/  4/  6   N/A
DOMINION TERM VA 1100   77     190/  4/  5 1015.9R
KIPTOPEKE VA     1100      81  220/  7/  9   N/A
CHES BAY BRIDGE  1100   77 78  200/  4/  6 1015.7R
CAPE HENRY VA    1100   76     190/  4/  5   N/A
CHESAPEAKE LGHT  1100   79     220/  9/  9 1016.9R
WILLOUBY STN VA  1100   78     180/  5/  6 1017.0R
CAPE HENRY BUOY  1128      81                N/A     3/11   2/11
1ST LANDING BUOY 1200      80              1016.2R   1/ 4
CAPE CHARLES BUO 1126      80                N/A     2/ 6   2/ 6
OFFSHORE WE BUOY 1111      81                N/A     3/10   3/10
64NM E OF VA BCH 1150   80 81  170/  6/  8 1016.6R   2/ 6   2/ 6
DUCK PIER NC     1100   77 65  150/  6/  6 1015.5R
44100 DUCK FRF   1124      81                N/A     2/11
44056 DUCK FRF   1111      78                N/A     2/ 9
OREGON INLET NC  1100   78 82  130/  3/  4 1016.2R
HATTERAS NC      1100   81 82  110/  6/  9 1015.6R
CAPE LOOKOUT NC  1200   80      80/ 13/ 14 1015.1R
$$



USA.gov is the U.S. government's official web portal to all federal, state and local government web resources and services.